Pensacola Beach, Florida, United States
Lat: 30.38N, Lon: 87.09W
Wx Zone: FLZ004
Local Info
Past Weather Observations for Today

NOTE: This archive is for the closest National Weather Service station to Pensacola Beach. Information may differ from the station used for current weather conditions.

Click here for Long-term Archive

Time Weather Temperature Dewpoint Humidity Pressure Winds Precip Visibility
14:53
Clear
82°F / 28°C 57°F / 14°C 42% 30.12 in
(1020 mb)
N 9.2 mph
(N 15 kph)
- 10SM
13:53
Clear
82°F / 28°C 55°F / 13°C 40% 30.15 in
(1021 mb)
N 5.8 mph
(N 9 kph)
- 10SM
12:53
Clear
82°F / 28°C 55°F / 13°C 40% 30.15 in
(1021 mb)
NE 8.1 mph
(NE 13 kph)
- 10SM
11:53
Clear
79°F / 26°C 57°F / 14°C 48% 30.15 in
(1021 mb)
Variable 6.9 mph
(Variable 11 kph)
- 10SM
10:53
Clear
75°F / 24°C 55°F / 13°C 50% 30.15 in
(1021 mb)
N 11.5 mph
(N 19 kph)
- 10SM
09:53
Clear
72°F / 22°C 57°F / 14°C 61% 30.18 in
(1022 mb)
N 10.4 mph
(N 17 kph)
- 10SM
08:53
Clear
68°F / 20°C 55°F / 13°C 64% 30.18 in
(1022 mb)
N 11.5 mph
(N 19 kph)
- 10SM
07:53
Mostly Cloudy
66°F / 19°C 55°F / 13°C 68% 30.18 in
(1022 mb)
N 12.7 mph
(N 20 kph)
- 10SM
06:53
Clear
64°F / 18°C 55°F / 13°C 73% 30.18 in
(1022 mb)
N 12.7 mph
(N 20 kph)
- 10SM
05:53
Partly Cloudy
63°F / 17°C 55°F / 13°C 77% 30.15 in
(1021 mb)
N 10.4 mph
(N 17 kph)
- 10SM
05:20
Partly Cloudy
63°F / 17°C 57°F / 14°C 83% 30.12 in
(1020 mb)
N 9.2 mph
(N 15 kph)
- 10SM
04:53
Mostly Cloudy
64°F / 18°C 59°F / 15°C 83% 30.12 in
(1020 mb)
N 11.5 mph
(N 19 kph)
- 10SM
04:30
Overcast
64°F / 18°C 61°F / 16°C 88% 30.12 in
(1020 mb)
N 9.2 mph
(N 15 kph)
- 10SM
04:10
Mostly Cloudy
66°F / 19°C 61°F / 16°C 83% 30.09 in
(1019 mb)
N 9.2 mph
(N 15 kph)
- 10SM
03:53
Partly Cloudy
66°F / 19°C 61°F / 16°C 83% 30.09 in
(1019 mb)
N 6.9 mph
(N 11 kph)
- 10SM
03:32
Partly Cloudy
66°F / 19°C 61°F / 16°C 83% 30.09 in
(1019 mb)
N 10.4 mph
(N 17 kph)
- 10SM
02:53
Mostly Cloudy
68°F / 20°C 63°F / 17°C 83% 30.09 in
(1019 mb)
N 10.4 mph
(N 17 kph)
- 10SM
02:39
Mostly Cloudy
68°F / 20°C 63°F / 17°C 83% 30.09 in
(1019 mb)
N 12.7 mph
(N 20 kph)
- 10SM
01:53
Clear
70°F / 21°C 63°F / 17°C 78% 30.06 in
(1018 mb)
N 10.4 mph
(N 17 kph)
- 10SM
00:53
Partly Cloudy
72°F / 22°C 64°F / 18°C 78% 30.06 in
(1018 mb)
N 8.1 mph
(N 13 kph)
- 10SM
Time Weather Temperature Dewpoint Humidity Pressure Winds Precip Visibility


Weather for websites

WeatherForYou.com, LLC is not responsible for any damages or problems caused by this service. Current weather conditions are obtained from the closest station including government and personal stations which may have varying degrees of accuracy. Weather forecasts are derived from the NOAA NDFD. Like all things, this site belongs to Jesus Christ... He just trusts us to maintain it. If you have any questions or comments email webmaster@weatherforyou.com

Copyright © 2015, WeatherForYou.com LLC. All rights reserved.